KB0KQA Weather Reports


time (UTC)temp
C
wind
direction
speed
KPH
gust
KPH
rain 1hr
cm
rain 24hr
cm
rain mn
cm
humidity
%
barometer
mb
20260502205208 18 300 6.4 12.9 0.00 0.00 0.00 33 1008.6
20260502204229 19 252 6.4 14.5 0.00 0.00 0.00 32 1008.9
20260502203208 19 262 1.6 9.7 0.00 0.00 0.00 31 1008.9
20260502202209 19 264 8.0 14.5 0.00 0.00 0.00 31 1009.1
20260502201208 19 307 6.4 17.7 0.00 0.00 0.00 31 1009.2
20260502200209 19 301 3.2 12.9 0.00 0.00 0.00 31 1009.2
20260502195208 19 291 1.6 8.0 0.00 0.00 0.00 32 1009.4
20260502194209 19 234 1.6 8.0 0.00 0.00 0.00 31 1009.4
20260502193208 19 245 6.4 11.3 0.00 0.00 0.00 31 1009.6
20260502192208 19 265 8.0 12.9 0.00 0.00 0.00 32 1009.7
20260502191228 18 237 3.2 8.0 0.00 0.00 0.00 32 1009.9
20260502190208 18 271 0.0 1.6 0.00 0.00 0.00 32 1010.0
20260502185208 19 267 0.0 4.8 0.00 0.00 0.00 31 1010.0
20260502184228 19 322 1.6 8.0 0.00 0.00 0.00 30 1010.1
20260502183208 19 236 3.2 12.9 0.00 0.00 0.00 30 1010.2
20260502182208 20 169 0.0 4.8 0.00 0.00 0.00 30 1010.3
20260502181208 20 298 0.0 4.8 0.00 0.00 0.00 29 1010.6
20260502180208 20 178 0.0 4.8 0.00 0.00 0.00 29 1010.8
20260502170208 18 282 8.0 12.9 0.00 0.00 0.00 31 1011.5
20260502164208 17 158 6.4 11.3 0.00 0.00 0.00 37 1012.0
20260502163208 16 205 1.6 6.4 0.00 0.00 0.00 37 1012.1
20260502162208 16 172 3.2 11.3 0.00 0.00 0.00 38 1012.1
20260502161209 16 269 6.4 12.9 0.00 0.00 0.00 37 1012.3
20260502160208 17 261 1.6 8.0 0.00 0.00 0.00 34 1012.4
20260502152208 14 227 8.0 14.5 0.00 0.00 0.00 41 1012.8
20260502151228 13 188 6.4 12.9 0.00 0.00 0.00 44 1013.1
20260502150208 12 195 3.2 9.7 0.00 0.00 0.00 46 1013.2
20260502130208 3 0.0 0.0 0.00 0.00 0.00 84 1014.6
20260502123208 1 0.0 0.0 0.00 0.00 0.00 94 1014.8
20260502122208 1 0.0 0.0 0.00 0.00 0.00 95 1014.9
20260502121208 0 0.0 0.0 0.00 0.00 0.00 95 1014.9
20260502120248 0 0.0 0.0 0.00 0.00 0.00 96 1015.0
20260502115208 -1 0.0 0.0 0.00 0.00 0.00 97 1015.0
20260502114208 -1 0.0 0.0 0.00 0.00 0.00 97 1015.3
20260502113207 -1 0.0 0.0 0.00 0.00 0.00 97 1015.3
20260502112208 -1 0.0 0.0 0.00 0.00 0.00 97 1015.4
20260502111207 -1 0.0 0.0 0.00 0.00 0.00 97 1015.4
20260502110208 -2 0.0 0.0 0.00 0.00 0.00 97 1015.4
20260502105208 -2 0.0 0.0 0.00 0.00 0.00 96 1015.4
20260502104228 -2 0.0 0.0 0.00 0.00 0.00 96 1015.5
20260502103209 -2 0.0 0.0 0.00 0.00 0.00 96 1015.6
20260502102228 -2 0.0 0.0 0.00 0.00 0.00 96 1015.7
20260502101248 -2 0.0 0.0 0.00 0.00 0.00 96 1015.7
20260502100208 -2 0.0 0.0 0.00 0.00 0.00 95 1015.8
20260502091208 -1 0.0 0.0 0.00 0.00 0.00 94 1016.3
20260502090208 -1 0.0 0.0 0.00 0.00 0.00 93 1016.3
20260502071208 -1 0.0 0.0 0.00 0.00 0.00 90 1016.6
20260502070208 0 0.0 0.0 0.00 0.00 0.00 89 1016.8
20260502065208 0 0.0 0.0 0.00 0.00 0.00 88 1016.9
20260502064209 0 0.0 0.0 0.00 0.00 0.00 86 1016.8
20260502063208 0 0.0 0.0 0.00 0.00 0.00 85 1016.8
20260502062208 0 0.0 0.0 0.00 0.00 0.00 83 1016.9
20260502061208 0 0.0 0.0 0.00 0.00 0.00 82 1016.9
20260502060209 0 0.0 0.0 0.00 0.00 0.00 82 1016.9
20260502055208 0 0.0 0.0 0.00 0.00 0.00 80 1016.9
20260502054209 0 0.0 0.0 0.00 0.00 0.00 78 1017.0
20260502053208 0 0.0 0.0 0.00 0.00 0.00 77 1017.1
20260502052209 0 0.0 0.0 0.00 0.00 0.00 76 1017.2
20260502051227 0 0.0 0.0 0.00 0.00 0.00 74 1017.2
20260502050208 1 0.0 0.0 0.00 0.00 0.00 73 1017.2
20260502045208 1 0.0 0.0 0.00 0.00 0.00 73 1017.3
20260502044208 1 0.0 0.0 0.00 0.00 0.00 72 1017.4
20260502043208 1 0.0 0.0 0.00 0.00 0.00 67 1017.4
20260502042208 1 0.0 0.0 0.00 0.00 0.00 66 1017.5
20260502041208 2 0.0 0.0 0.00 0.00 0.00 65 1017.4
20260502040208 2 0.0 0.0 0.00 0.00 0.00 65 1017.5
20260502035208 2 0.0 0.0 0.00 0.00 0.00 62 1017.4
20260502034208 2 0.0 0.0 0.00 0.00 0.00 63 1017.4
20260502033309 2 0.0 0.0 0.00 0.00 0.00 62 1017.4
20260502032228 3 0.0 0.0 0.00 0.00 0.00 61 1017.5
20260502031208 3 0.0 0.0 0.00 0.00 0.00 60 1017.5
20260502030208 3 0.0 0.0 0.00 0.00 0.00 56 1017.5
20260502025208 3 0.0 0.0 0.00 0.00 0.00 54 1017.5
20260502024209 4 0.0 0.0 0.00 0.00 0.00 53 1017.4
20260502023209 4 0.0 0.0 0.00 0.00 0.00 53 1017.4
20260502022208 5 0.0 0.0 0.00 0.00 0.00 52 1017.4
20260502021208 5 0.0 0.0 0.00 0.00 0.00 48 1017.2
20260502020208 6 0.0 0.0 0.00 0.00 0.00 46 1017.1
20260502015208 7 0.0 0.0 0.00 0.00 0.00 44 1017.1
20260502014208 7 0.0 0.0 0.00 0.00 0.00 43 1017.0
20260502013208 8 0.0 0.0 0.00 0.00 0.00 41 1017.0
20260502012208 9 0.0 0.0 0.00 0.00 0.00 40 1017.1
20260502011208 9 0.0 0.0 0.00 0.00 0.00 40 1016.9
20260502010208 10 0.0 0.0 0.00 0.00 0.00 39 1016.9
20260502005208 10 18 4.8 8.0 0.00 0.00 0.00 38 1016.9
20260502004208 10 334 6.4 11.3 0.00 0.00 0.00 38 1016.8
20260502003235 10 4 4.8 11.3 0.00 0.00 0.00 37 1016.8
20260502002208 11 29 6.4 11.3 0.00 0.00 0.00 37 1016.9
20260502001208 11 9 6.4 12.9 0.00 0.00 0.00 36 1016.7
20260502000208 11 20 9.7 14.5 0.00 0.00 0.00 35 1016.7
20260501235213 11 21 8.0 12.9 0.00 0.00 0.00 35 1016.7
20260501234231 12 15 4.8 8.0 0.00 0.00 0.00 33 1016.7
20260501233234 12 355 3.2 8.0 0.00 0.00 0.00 35 1016.7
20260501232210 12 342 4.8 9.7 0.00 0.00 0.00 33 1016.7
20260501231229 12 4 1.6 11.3 0.00 0.00 0.00 32 1016.8
20260501230211 12 334 1.6 6.4 0.00 0.00 0.00 34 1016.8
20260501225231 12 42 3.2 11.3 0.00 0.00 0.00 32 1016.9
20260501224214 12 40 8.0 17.7 0.00 0.00 0.00 32 1017.0
20260501223214 13 19 11.3 19.3 0.00 0.00 0.00 31 1017.0
20260501222213 12 337 3.2 11.3 0.00 0.00 0.00 32 1017.0
20260501221224 12 6 4.8 12.9 0.00 0.00 0.00 31 1017.2
20260501220211 12 359 8.0 16.1 0.00 0.00 0.00 32 1017.2
20260501215227 13 3 11.3 17.7 0.00 0.00 0.00 31 1017.2
20260501214213 12 5 14.5 24.1 0.00 0.00 0.00 32 1017.3
20260501213233 12 10 9.7 16.1 0.00 0.00 0.00 30 1017.3
20260501212211 12 2 6.4 16.1 0.00 0.00 0.00 30 1017.5
20260501211210 12 4 8.0 14.5 0.00 0.00 0.00 29 1017.5
20260501210210 12 5 4.8 14.5 0.00 0.00 0.00 29 1017.4